Weather in Ilyinka

Russia / Rostov Oblast     48°32′28″N   41°05′12″E
temp.,
°C
wind,
m/s
gust,
m/s
humid.,
%
clouds,
%
prec.,
mm/h
press.,
hPa
HPBL,
m
17 august, wed
wed1700:00+30ene71420100 0.0 1009581
03:00+26ene5122618 0.0 1008259
06:00+24e410315 0.0 1008264
09:00+30ese45285 0.0 1008754
12:00+36s55201 0.0 10071770
15:00+37sse57185 0.0 10063199
18:00+35se662694 0.0 10061365
21:00+29sw410347 0.0 1007216
18 august, thu
thu1800:00+25wsw48520 0.0 1007137
03:00+24wsw34615 0.0 100774
06:00+23ssw2261100 0.0 100838
09:00+28ssw4446100 0.3 1008438
12:00+33ssw442994 0.3 10081673
15:00+35ssw55257 0.3 10072423
18:00+29sse9114698 0.1 1007574
21:00+24wnw235799 0.7 100876
19 august, fri
fri1900:00+23e3570100 1.6 100897
03:00+21se3580100 2.0 1008115
06:00+21sse2483100 1.7 1009182
09:00+25se5758100 2.4 1010729
12:00+30ese65405 0.0 10101726
15:00+32e453693 0.3 10102534
18:00+30e48336 0.7 1009436
21:00+26e494040 0.8 1011205
20 august, sat
sat2000:00+26ese91631100 0.0 10131031
03:00+25ese81435100 0.0 1015995
06:00+25ese91635100 0.0 10151148
09:00+27ese111626100 0.0 10161438
12:00+30ese11142386 0.0 10162270
15:00+33ese12152099 0.0 10153005
18:00+30ese111521100 0.0 10151649
21:00+27ese101624100 0.0 1017947
21 august, sun
sun2100:00+24ese91526100 0.0 1017876
03:00+23e71428100 0.0 1017647
06:00+21e71426100 0.0 1017578
09:00+25ese91321100 0.0 1017821
12:00+30ese11141734 0.0 10151938
15:00+32ese111315100 0.0 10142590
18:00+30e81216100 0.0 10141421
21:00+27e8152397 0.0 1014634